CDT,Max TemperatureF,Mean TemperatureF,Min TemperatureF,Max Dew PointF,MeanDew PointF,Min DewpointF,Max Humidity, Mean Humidity, Min Humidity, Max Sea Level PressureIn, Mean Sea Level PressureIn, Min Sea Level PressureIn, Max VisibilityMiles, Mean VisibilityMiles, Min VisibilityMiles, Max Wind SpeedMPH, Mean Wind SpeedMPH, Max Gust SpeedMPH,PrecipitationIn, CloudCover, Events, WindDirDegrees
2013-4-1,52,43,33,34,23,15,79,55,31,30.33,30.23,30.02,10,10,10,25,13,31,T,6,,37
2013-4-2,52,43,34,31,21,18,62,45,28,30.35,30.28,30.23,10,10,10,14,7,18,0.00,4,,103
2013-4-3,45,42,38,32,27,22,67,54,40,30.37,30.31,30.27,10,10,10,16,5,20,0.00,6,,115
2013-4-4,64,50,36,37,34,30,85,58,30,30.26,30.17,30.09,10,10,7,9,5,13,0.00,2,,234
2013-4-5,69,52,35,43,39,34,92,62,31,30.13,29.98,29.71,10,10,10,35,16,46,0.00,0,,172
2013-4-6,78,62,46,45,42,38,71,48,25,29.83,29.72,29.64,10,10,10,35,16,47,0.00,0,,251
2013-4-7,78,61,43,57,47,40,93,60,27,29.83,29.73,29.61,10,9,5,26,11,32,T,3,,168
2013-4-8,78,67,55,60,57,54,93,72,50,29.68,29.62,29.54,10,8,5,23,12,31,0.00,6,,144
2013-4-9,73,53,32,61,45,28,92,80,68,30.01,29.74,29.48,10,7,2,32,20,38,0.74,8,Rain-Snow-Thunderstorm,296
2013-4-10,33,32,30,30,28,26,92,87,82,30.08,29.97,29.87,10,7,2,31,18,37,0.02,8,Rain-Snow-Thunderstorm,319
2013-4-11,48,38,27,30,26,22,85,67,49,29.96,29.85,29.77,10,10,9,25,14,30,0.25,3,Snow,302
2013-4-12,58,44,30,33,29,24,78,57,36,30.06,29.97,29.89,10,10,10,18,9,22,0.00,0,,321
2013-4-13,69,50,31,52,40,28,92,67,42,30.06,29.83,29.50,10,10,10,28,12,38,0.00,1,,165
2013-4-14,72,60,47,51,39,27,64,42,19,29.75,29.51,29.36,10,10,10,33,18,51,0.00,0,,256
2013-4-15,56,49,41,36,28,22,73,52,30,30.02,29.88,29.73,10,10,10,21,11,23,0.00,7,,18
2013-4-16,48,44,40,35,28,26,65,54,42,30.16,30.08,29.98,10,10,10,21,13,26,T,7,Rain,51
2013-4-17,46,43,39,43,39,36,96,89,82,30.05,29.88,29.76,10,6,2,26,13,32,0.72,8,Rain-Thunderstorm,8
2013-4-18,40,36,32,37,29,25,89,74,59,30.09,29.92,29.76,10,8,2,33,22,40,0.04,7,Rain-Snow-Thunderstorm,323
2013-4-19,59,45,30,33,27,22,69,51,33,30.11,30.07,30.03,10,10,10,26,12,32,0.00,1,,309
2013-4-20,65,50,35,40,32,25,70,53,36,30.14,30.08,30.00,10,10,10,28,13,33,0.00,2,,112
2013-4-21,70,60,49,44,41,38,66,52,37,30.11,30.06,30.02,10,10,10,30,14,36,0.00,2,,170
2013-4-22,59,47,35,52,43,30,89,76,62,30.15,30.01,29.90,10,9,3,32,13,41,0.30,7,Rain-Snow-Thunderstorm,87
2013-4-23,37,34,31,30,28,24,92,78,64,30.30,30.20,30.13,10,5,1,30,16,35,0.18,8,Rain-Snow,352
2013-4-24,61,42,23,36,28,19,88,58,28,30.30,30.25,30.16,10,10,10,18,7,25,0.00,0,,236
2013-4-25,72,52,31,42,35,28,92,59,25,30.30,30.20,30.05,10,10,10,25,10,32,T,0,,183
2013-4-26,63,55,47,50,46,42,89,77,64,30.18,30.11,30.05,10,10,7,23,11,28,0.07,7,Rain-Thunderstorm,134
2013-4-27,67,58,49,52,49,47,93,73,52,30.18,30.13,29.99,10,6,1,12,5,13,0.01,6,Rain,22
2013-4-28,80,64,48,58,52,45,93,66,39,29.99,29.85,29.70,10,9,5,20,11,24,0.00,1,,179
2013-4-29,86,68,50,61,54,48,89,62,34,29.74,29.64,29.51,10,10,10,25,12,31,0.00,0,,185
2013-4-30,86,75,64,61,56,49,73,57,40,29.70,29.61,29.56,10,10,10,29,17,41,0.00,0,,177